FW5486 Weather Reports


Display with metric or nautical units.
time (UTC)temp
F
wind
direction
speed
MPH
gust
MPH
rain 1hr
in
rain 24hr
in
rain mn
in
humidity
%
barometer
mb
20260906102916 74 167 0.0 0.0 0.00 0.48 0.01 95 1014.0
20260906102145 75 167 0.0 0.0 0.00 0.48 0.01 95 1014.0
20260906101910 75 167 0.0 0.0 0.00 0.48 0.01 95 1013.9
20260906101409 75 167 0.0 0.0 0.00 0.48 0.01 95 1014.0
20260906100639 75 167 0.0 0.0 0.00 0.48 0.01 95 1013.9
20260906100138 75 167 0.0 0.0 0.00 0.48 0.01 95 1013.9
20260906095639 75 167 0.0 0.0 0.00 0.48 0.01 95 1013.9
20260906095138 75 167 0.0 0.0 0.00 0.48 0.01 95 1013.9
20260906094635 75 167 0.0 0.0 0.00 0.48 0.01 95 1013.9
20260906094135 75 167 0.0 0.0 0.00 0.48 0.01 95 1013.9
20260906093635 75 167 0.0 0.0 0.00 0.48 0.01 95 1013.8
20260906093135 75 167 0.0 0.0 0.00 0.48 0.01 95 1013.9
20260906092633 75 167 0.0 0.0 0.00 0.48 0.01 95 1013.9
20260906092405 75 167 0.0 0.0 0.00 0.48 0.01 95 1013.8
20260906091633 75 167 0.0 0.0 0.00 0.48 0.01 95 1013.7
20260906091629 75 167 0.0 0.0 0.00 0.48 0.01 95 1013.8
20260906090628 75 135 0.0 0.0 0.00 0.48 0.01 95 1013.7
20260906090128 75 119 0.0 0.0 0.00 0.48 0.01 95 1013.6
20260906085627 75 119 0.0 0.0 0.00 0.48 0.01 95 1013.6
20260906085126 75 119 0.0 0.0 0.00 0.48 0.01 95 1013.5
20260906084621 75 119 0.0 0.0 0.00 0.48 0.01 95 1013.5
20260906084119 75 119 0.0 0.0 0.00 0.48 0.01 95 1013.4
20260906083617 75 119 0.0 0.0 0.00 0.48 0.01 95 1013.6
20260906083115 75 119 0.0 0.0 0.00 0.48 0.01 95 1013.6
20260906082614 75 119 0.0 0.0 0.00 0.48 0.01 95 1013.6
20260906082340 75 119 0.0 0.0 0.00 0.48 0.01 95 1013.7
20260906081606 75 119 0.0 0.0 0.00 0.48 0.01 95 1013.7
20260906081104 75 119 0.0 0.0 0.00 0.48 0.01 95 1013.7
20260906080603 75 119 0.0 0.0 0.00 0.48 0.01 95 1013.8
20260906075601 75 119 0.0 2.0 0.00 0.48 0.01 95 1013.9
20260906075329 75 119 0.0 2.0 0.00 0.48 0.01 95 1013.8
20260906074831 75 119 0.0 2.0 0.00 0.48 0.01 95 1013.8
20260906074330 75 178 0.0 0.0 0.00 0.48 0.01 95 1013.7
20260906073557 75 178 0.0 2.0 0.00 0.48 0.01 95 1013.7
20260906073057 75 178 0.0 2.0 0.00 0.48 0.01 95 1013.7
20260906072551 75 178 0.0 0.0 0.00 0.48 0.01 95 1013.7
20260906072047 75 178 0.0 0.0 0.00 0.48 0.01 95 1013.8
20260906071547 75 178 0.0 0.0 0.00 0.48 0.01 95 1013.8
20260906071045 75 175 0.0 1.0 0.00 0.48 0.01 95 1013.8
20260906070544 75 175 0.0 1.0 0.00 0.48 0.01 95 1013.8
20260906070040 76 163 0.0 1.0 0.00 0.48 0.01 95 1013.7
20260906065540 75 163 0.0 2.0 0.00 0.48 0.01 95 1013.7
20260906065037 75 162 0.0 2.0 0.00 0.48 0.01 95 1013.7
20260906064539 75 128 0.0 0.0 0.00 0.48 0.01 95 1013.6
20260906064311 75 107 0.0 0.0 0.00 0.48 0.01 95 1013.6
20260906063540 75 107 0.0 0.0 0.01 0.48 0.01 95 1013.7
20260906063039 75 107 0.0 1.0 0.01 0.48 0.01 95 1013.6
20260906063035 75 107 0.0 1.0 0.01 0.48 0.01 95 1013.6
20260906062035 75 115 0.0 0.0 0.01 0.48 0.01 95 1013.7
20260906061806 75 118 0.0 0.0 0.01 0.48 0.01 95 1013.7
20260906061035 75 118 0.0 0.0 0.01 0.48 0.01 95 1013.7
20260906060806 76 118 0.0 0.0 0.01 0.48 0.01 95 1013.8
20260906060307 76 118 0.0 0.0 0.01 0.48 0.01 95 1013.7
20260906055529 76 118 0.0 0.0 0.01 0.48 0.01 95 1013.6
20260906055031 76 118 0.0 0.0 0.01 0.48 0.01 95 1013.6
20260906054530 76 118 0.0 0.0 0.01 0.48 0.01 95 1013.6
20260906054031 75 118 0.0 0.0 0.01 0.48 0.01 95 1013.6
20260906053529 76 118 0.0 0.0 0.00 0.47 0.00 95 1013.7
20260906053026 76 118 0.0 0.0 0.00 0.47 0.00 95 1013.7
20260906052526 76 118 0.0 0.0 0.00 0.47 0.00 95 1013.7
20260906052027 76 118 0.0 0.0 0.00 0.47 0.00 95 1013.7
20260906051526 76 118 0.0 0.0 0.00 0.47 0.00 95 1013.6
20260906051026 76 118 0.0 0.0 0.00 0.47 0.00 95 1013.5
20260906050526 76 118 0.0 0.0 0.00 0.47 0.00 95 1013.6
20260906050023 76 118 0.0 0.0 0.00 0.47 0.00 95 1013.6
20260906045523 76 118 0.0 0.0 0.00 0.47 0.47 94 1013.6
20260906045017 76 118 0.0 0.0 0.00 0.47 0.47 94 1013.6
20260906044518 76 118 0.0 2.0 0.00 0.47 0.47 95 1013.6
20260906044020 76 118 0.0 2.0 0.00 0.47 0.47 95 1013.5
20260906043518 76 118 1.0 2.0 0.00 0.47 0.47 95 1013.5
20260906043018 76 136 0.0 2.0 0.00 0.47 0.47 95 1013.4
20260906042519 76 126 1.0 2.0 0.00 0.47 0.47 95 1013.3
20260906042013 76 126 1.0 2.0 0.00 0.47 0.47 95 1013.2
20260906041514 76 117 1.0 2.0 0.00 0.47 0.47 95 1013.2
20260906041017 76 116 1.0 2.0 0.00 0.47 0.47 95 1013.1
20260906041012 76 118 1.0 2.0 0.00 0.47 0.47 95 1013.3
20260906040243 76 116 1.0 2.0 0.00 0.47 0.47 95 1013.1
20260906035513 76 105 0.0 2.0 0.00 0.47 0.47 95 1013.1
20260906035013 76 103 0.0 0.0 0.00 0.47 0.47 95 1013.0
20260906034514 76 103 0.0 0.0 0.00 0.47 0.47 94 1012.9
20260906034011 76 103 0.0 0.0 0.00 0.47 0.47 94 1012.9
20260906033740 76 103 0.0 0.0 0.00 0.47 0.47 94 1012.9
20260906033237 76 103 0.0 0.0 0.00 0.47 0.47 94 1012.9
20260906032507 76 103 0.0 0.0 0.00 0.47 0.47 94 1012.8
20260906032007 76 103 0.0 0.0 0.00 0.47 0.47 94 1012.8
20260906031507 76 103 0.0 0.0 0.00 0.47 0.47 94 1012.9
20260906031000 76 103 0.0 0.0 0.00 0.47 0.47 94 1012.9
20260906030500 76 103 0.0 0.0 0.00 0.47 0.47 94 1013.0
20260906030001 76 103 0.0 0.0 0.00 0.47 0.47 94 1013.1
20260906025458 76 103 0.0 0.0 0.00 0.47 0.47 94 1013.1
20260906024958 76 103 0.0 0.0 0.00 0.47 0.47 94 1013.2
20260906024730 76 103 0.0 0.0 0.00 0.47 0.47 94 1013.1
20260906023954 76 103 0.0 0.0 0.00 0.47 0.47 94 1013.2
20260906023450 76 103 0.0 0.0 0.00 0.47 0.47 94 1013.2
20260906022949 76 92 0.0 0.0 0.00 0.47 0.47 94 1013.4
20260906022447 77 102 0.0 0.0 0.00 0.47 0.47 94 1013.3
20260906021947 77 102 0.0 2.0 0.00 0.47 0.47 94 1013.4
20260906021443 77 102 0.0 2.0 0.00 0.47 0.47 94 1013.3
20260906020943 77 102 0.0 2.0 0.00 0.47 0.47 94 1013.3
20260906020442 77 102 0.0 2.0 0.00 0.47 0.47 94 1013.5
20260906020216 77 18 0.0 2.0 0.00 0.47 0.47 94 1013.4
20260906015441 77 18 1.0 2.0 0.00 0.47 0.47 94 1013.5
20260906014942 77 18 1.0 1.0 0.00 0.47 0.47 94 1013.4
20260906014434 77 17 0.0 1.0 0.00 0.47 0.47 94 1013.3
20260906013938 77 119 0.0 1.0 0.00 0.47 0.47 94 1013.4
20260906013933 77 87 0.0 0.0 0.00 0.47 0.47 94 1013.5
20260906012929 77 119 0.0 1.0 0.00 0.47 0.47 94 1013.4
20260906012430 77 143 0.0 1.0 0.00 0.47 0.47 94 1013.2
20260906011923 77 143 0.0 1.0 0.00 0.47 0.47 94 1013.1
20260906011420 77 143 0.0 0.0 0.00 0.47 0.47 94 1013.2
20260906010919 77 143 0.0 2.0 0.00 0.47 0.47 94 1013.1
20260906010417 77 143 0.0 2.0 0.00 0.47 0.47 94 1013.2
20260906005918 77 346 0.0 2.0 0.01 0.47 0.47 94 1013.1
20260906005411 77 346 0.0 2.0 0.01 0.47 0.47 94 1013.2
20260906004909 77 321 0.0 0.0 0.01 0.47 0.47 94 1013.3
20260906004407 77 321 0.0 0.0 0.03 0.47 0.47 94 1013.3
20260906004136 77 321 0.0 0.0 0.05 0.47 0.47 94 1013.3
20260906003406 77 321 0.0 2.0 0.06 0.47 0.47 94 1013.4
20260906002900 77 321 0.0 2.0 0.07 0.47 0.47 93 1013.4
20260906002400 77 321 1.0 3.0 0.07 0.47 0.47 93 1013.5
20260906001900 77 92 0.0 3.0 0.08 0.47 0.47 93 1013.7
20260906001400 77 18 0.0 2.0 0.10 0.47 0.47 93 1013.8
20260906000858 77 75 0.0 2.0 0.14 0.47 0.47 93 1013.7
20260906000629 77 76 1.0 2.0 0.18 0.47 0.47 93 1013.7
20260905235854 77 141 1.0 2.0 0.26 0.46 0.46 93 1013.7
20260905235354 77 118 1.0 2.0 0.41 0.46 0.46 93 1013.7
20260905234852 77 156 1.0 2.0 0.44 0.46 0.46 93 1013.8
20260905234352 77 155 1.0 2.0 0.43 0.44 0.44 92 1013.8
20260905233852 77 130 1.0 2.0 0.41 0.42 0.42 92 1013.8
20260905233624 77 119 2.0 3.0 0.40 0.41 0.41 92 1013.9
20260905232849 77 119 1.0 4.0 0.39 0.40 0.40 92 1013.9
20260905232349 77 157 1.0 4.0 0.39 0.40 0.40 91 1013.7
20260905231849 77 157 2.0 4.0 0.38 0.39 0.39 91 1013.7
20260905231348 78 116 3.0 8.0 0.36 0.37 0.38 90 1013.9
20260905230846 78 112 3.0 8.0 0.32 0.33 0.33 90 1013.9
20260905230348 78 111 2.0 7.0 0.27 0.28 0.28 89 1013.8
20260905225839 78 102 2.0 11.0 0.17 0.18 0.19 88 1014.0
20260905225340 79 173 2.0 11.0 0.04 0.05 0.05 88 1014.0
20260905224839 79 223 5.0 12.0 0.01 0.02 0.02 87 1014.1
20260905224341 80 114 6.0 12.0 0.00 0.01 0.01 85 1014.4
20260905223840 81 109 6.0 11.0 0.00 0.01 0.01 84 1014.5
20260905223340 81 113 5.0 9.0 0.00 0.01 0.01 81 1014.4
20260905222834 81 104 3.0 9.0 0.00 0.01 0.01 79 1014.4
20260905222331 81 160 2.0 6.0 0.00 0.01 0.01 79 1014.3
20260905221831 82 216 1.0 3.0 0.00 0.01 0.01 78 1014.2
20260905221331 82 207 2.0 8.0 0.00 0.01 0.01 77 1014.0
20260905220833 83 229 2.0 8.0 0.00 0.01 0.01 77 1014.0
20260905220332 84 215 1.0 5.0 0.00 0.01 0.01 78 1013.9
20260905220103 84 199 1.0 4.0 0.00 0.01 0.01 79 1013.6
20260905215326 85 217 1.0 2.0 0.00 0.01 0.01 78 1013.4
20260905214823 85 218 0.0 2.0 0.00 0.01 0.01 77 1013.6
20260905214323 85 228 0.0 2.0 0.00 0.01 0.01 76 1013.4
20260905213825 85 228 0.0 2.0 0.00 0.01 0.01 75 1013.4
20260905213325 85 228 1.0 4.0 0.00 0.01 0.01 76 1013.1
20260905212823 85 227 1.0 6.0 0.00 0.01 0.01 75 1013.0
20260905212325 85 265 1.0 7.0 0.00 0.01 0.01 76 1013.0
20260905211824 85 290 2.0 7.0 0.00 0.01 0.01 74 1012.9
20260905211556 85 252 1.0 4.0 0.00 0.01 0.01 75 1013.0
20260905210824 85 261 1.0 4.0 0.00 0.01 0.01 74 1013.4
20260905210323 85 258 1.0 3.0 0.00 0.01 0.01 76 1013.5
20260905205824 85 256 2.0 8.0 0.00 0.01 0.01 76 1013.5
20260905205319 85 263 2.0 8.0 0.00 0.01 0.01 76 1013.4
20260905204819 85 305 1.0 6.0 0.00 0.01 0.01 75 1013.4
20260905204320 85 247 2.0 7.0 0.00 0.01 0.01 74 1013.4
20260905203818 85 266 2.0 7.0 0.00 0.01 0.01 75 1013.4
20260905203552 85 278 1.0 6.0 0.00 0.01 0.01 74 1013.5
20260905202821 86 286 2.0 6.0 0.00 0.01 0.01 72 1013.7
20260905202321 86 267 2.0 6.0 0.00 0.01 0.01 72 1013.6
20260905201820 86 248 1.0 3.0 0.00 0.01 0.01 73 1013.6
20260905201318 87 304 1.0 3.0 0.00 0.01 0.01 71 1013.4
20260905200818 87 291 2.0 3.0 0.00 0.01 0.01 71 1013.4
20260905200317 88 286 1.0 3.0 0.00 0.01 0.01 70 1013.4
20260905195815 89 288 1.0 4.0 0.00 0.01 0.01 69 1013.5
20260905195315 89 288 2.0 4.0 0.00 0.01 0.01 69 1013.7
20260905195047 90 297 2.0 4.0 0.00 0.01 0.01 75 1013.8
20260905194543 89 270 1.0 4.0 0.00 0.01 0.01 71 1013.9
20260905194043 90 304 1.0 3.0 0.00 0.01 0.01 70 1013.9
20260905193313 90 283 1.0 3.0 0.00 0.01 0.01 71 1014.0
20260905193037 90 355 1.0 3.0 0.00 0.01 0.01 68 1014.1
20260905192306 90 26 1.0 2.0 0.00 0.01 0.01 72 1014.0
20260905192037 90 139 1.0 2.0 0.00 0.01 0.01 68 1013.9
20260905191303 90 86 1.0 2.0 0.00 0.01 0.01 68 1013.9
20260905190804 89 291 1.0 3.0 0.00 0.01 0.01 69 1013.8
20260905190534 90 292 2.0 7.0 0.00 0.01 0.01 67 1013.7
20260905185801 90 44 2.0 8.0 0.00 0.01 0.01 66 1013.7
20260905185300 90 80 3.0 8.0 0.00 0.01 0.01 66 1013.6
20260905184800 90 115 3.0 8.0 0.00 0.01 0.01 67 1013.7
20260905184532 90 123 2.0 8.0 0.00 0.01 0.01 67 1013.8
20260905183758 90 248 1.0 4.0 0.00 0.01 0.01 70 1013.9
20260905183258 90 130 1.0 3.0 0.00 0.01 0.01 69 1014.0
20260905182751 89 117 1.0 3.0 0.00 0.01 0.01 72 1014.1
20260905182248 89 213 1.0 3.0 0.01 0.01 0.01 76 1014.4
20260905181747 88 249 2.0 3.0 0.01 0.01 0.01 74 1014.5
20260905181246 87 185 2.0 3.0 0.01 0.01 0.01 74 1014.5
20260905180745 87 98 1.0 3.0 0.01 0.01 0.01 76 1014.4
20260905180244 86 121 1.0 3.0 0.01 0.01 0.01 76 1014.5
20260905175740 85 111 1.0 3.0 0.01 0.01 0.01 77 1014.6
20260905175513 84 126 1.0 2.0 0.01 0.01 0.01 80 1014.7
20260905174741 83 121 0.0 2.0 0.01 0.01 0.01 82 1014.8
20260905174239 82 191 0.0 2.0 0.01 0.01 0.01 87 1014.8
20260905173741 81 163 0.0 2.0 0.01 0.01 0.01 86 1014.9
20260905173234 81 132 1.0 3.0 0.01 0.01 0.01 87 1015.0
20260905172735 80 65 2.0 4.0 0.01 0.01 0.01 86 1015.2
20260905172508 80 131 2.0 4.0 0.00 0.00 0.00 87 1015.2
20260905171736 80 150 3.0 10.0 0.00 0.00 0.00 88 1015.1
20260905171233 81 132 4.0 10.0 0.00 0.00 0.00 86 1015.2
20260905171004 81 105 6.0 13.0 0.00 0.00 0.00 85 1015.2
20260905170228 81 105 6.0 13.0 0.00 0.00 0.00 86 1015.2
20260905165728 81 115 5.0 10.0 0.00 0.00 0.00 87 1015.4
20260905165229 81 134 3.0 9.0 0.00 0.00 0.00 87 1015.3
20260905164728 81 132 3.0 7.0 0.00 0.00 0.00 86 1015.5
20260905164228 81 166 4.0 8.0 0.00 0.00 0.00 85 1015.5
20260905163727 82 118 4.0 8.0 0.00 0.00 0.00 83 1015.3
20260905163222 83 130 4.0 9.0 0.00 0.00 0.00 82 1015.2
20260905162721 84 151 3.0 9.0 0.00 0.00 0.00 80 1015.2
20260905162220 85 148 1.0 5.0 0.00 0.00 0.00 80 1015.3
20260905161953 85 113 0.0 2.0 0.00 0.00 0.00 79 1015.4
20260905161222 85 349 0.0 2.0 0.00 0.00 0.00 79 1015.4
20260905160722 86 349 0.0 0.0 0.00 0.00 0.00 80 1015.5
20260905160215 86 349 0.0 2.0 0.00 0.00 0.00 79 1015.5
20260905155714 86 349 0.0 2.0 0.00 0.00 0.00 79 1015.4
20260905155212 86 346 0.0 2.0 0.00 0.00 0.00 80 1015.4
20260905154710 86 355 0.0 0.0 0.00 0.00 0.00 79 1015.5
20260905154443 86 355 0.0 1.0 0.00 0.00 0.00 79 1015.5
20260905153938 87 355 0.0 2.0 0.00 0.00 0.00 78 1015.5
20260905153205 87 355 0.0 2.0 0.00 0.00 0.00 78 1015.5
20260905152938 87 333 0.0 4.0 0.00 0.00 0.00 77 1015.5
20260905152437 87 349 0.0 4.0 0.00 0.00 0.00 77 1015.5
20260905151704 87 348 1.0 5.0 0.00 0.00 0.00 79 1015.4
20260905151209 86 24 1.0 4.0 0.00 0.00 0.00 78 1015.4
20260905151204 86 297 1.0 5.0 0.00 0.00 0.00 78 1015.3
20260905150159 86 0 1.0 3.0 0.00 0.00 0.00 78 1015.3
20260905145658 86 346 1.0 3.0 0.00 0.00 0.00 78 1015.3
20260905145426 85 336 2.0 4.0 0.00 0.00 0.00 81 1015.4
20260905144654 85 49 2.0 4.0 0.00 0.00 0.00 80 1015.3
20260905144155 84 18 1.0 2.0 0.00 0.00 0.00 82 1015.3
20260905143922 84 14 1.0 3.0 0.00 0.00 0.00 82 1015.4
20260905143150 83 355 1.0 3.0 0.00 0.00 0.00 84 1015.4
20260905142650 83 32 1.0 3.0 0.00 0.00 0.00 84 1015.5
20260905142149 82 30 0.0 3.0 0.00 0.00 0.00 84 1015.5
20260905141647 82 342 0.0 0.0 0.00 0.00 0.00 86 1015.4
20260905141147 82 331 0.0 2.0 0.00 0.00 0.00 86 1015.4
20260905140644 81 331 0.0 2.0 0.00 0.00 0.00 87 1015.4
20260905140145 81 40 0.0 2.0 0.00 0.00 0.00 88 1015.4
20260905135645 80 40 0.0 2.0 0.00 0.00 0.00 88 1015.4
20260905135145 80 40 0.0 1.0 0.00 0.00 0.00 89 1015.4
20260905134644 80 68 1.0 2.0 0.00 0.00 0.00 89 1015.4
20260905134148 79 68 1.0 2.0 0.00 0.00 0.00 89 1015.3
20260905134141 79 64 1.0 2.0 0.00 0.00 0.00 90 1015.3
20260905133140 79 5 1.0 2.0 0.00 0.00 0.00 90 1015.3
20260905132640 79 21 1.0 2.0 0.00 0.01 0.00 90 1015.3
20260905132140 79 61 1.0 3.0 0.00 0.01 0.00 91 1015.3
20260905131641 78 47 1.0 3.0 0.00 0.01 0.00 90 1015.4
20260905131141 78 26 1.0 2.0 0.00 0.01 0.00 90 1015.3
20260905130636 78 41 0.0 2.0 0.00 0.01 0.00 91 1015.4
20260905130135 78 41 0.0 2.0 0.00 0.01 0.00 91 1015.4
20260905125907 78 38 0.0 2.0 0.00 0.01 0.00 92 1015.4
20260905125136 78 38 0.0 0.0 0.00 0.01 0.00 92 1015.4
20260905124637 77 38 0.0 2.0 0.00 0.01 0.00 92 1015.4
20260905124137 77 38 0.0 2.0 0.00 0.01 0.00 93 1015.4
20260905123636 77 38 0.0 2.0 0.00 0.01 0.00 93 1015.4
20260905123135 77 37 0.0 2.0 0.00 0.01 0.00 93 1015.4
20260905122637 77 54 0.0 2.0 0.00 0.01 0.00 93 1015.3
20260905122137 77 55 0.0 2.0 0.00 0.01 0.00 93 1015.3
20260905121636 77 54 0.0 2.0 0.00 0.01 0.00 93 1015.1
20260905121403 77 54 0.0 1.0 0.00 0.01 0.00 93 1015.1
20260905120632 77 54 0.0 2.0 0.00 0.01 0.00 93 1015.1
20260905120133 77 54 0.0 2.0 0.00 0.01 0.00 93 1015.2
20260905115904 77 54 0.0 0.0 0.00 0.01 0.00 93 1015.2
20260905115131 76 54 0.0 0.0 0.00 0.01 0.00 93 1015.0
20260905114631 76 54 0.0 1.0 0.00 0.01 0.00 93 1015.0
20260905114129 76 54 0.0 2.0 0.00 0.01 0.00 93 1014.8
20260905113628 76 53 0.0 2.0 0.00 0.01 0.00 93 1014.7
20260905113127 76 53 0.0 0.0 0.00 0.01 0.00 93 1014.7
20260905112629 76 53 0.0 0.0 0.00 0.01 0.00 93 1014.5
20260905112127 76 53 0.0 0.0 0.00 0.01 0.00 93 1014.3
20260905111625 76 53 0.0 0.0 0.00 0.01 0.00 93 1014.4
20260905111125 76 53 0.0 0.0 0.00 0.01 0.00 93 1014.4
20260905110623 76 53 0.0 0.0 0.00 0.01 0.00 93 1014.3
20260905110121 76 53 0.0 0.0 0.00 0.01 0.00 93 1014.2
20260905105621 76 53 0.0 0.0 0.00 0.01 0.00 93 1014.2
20260905105121 76 53 0.0 0.0 0.00 0.01 0.00 93 1014.2
20260905104619 76 53 0.0 0.0 0.00 0.01 0.00 92 1014.2
20260905104120 77 53 0.0 0.0 0.00 0.01 0.00 93 1014.2
20260905103612 77 53 0.0 0.0 0.00 0.01 0.00 92 1014.2